www.pogodaiklimat.ru

Погода и климат >> Архив погоды >> Китай >> Гуандун >> Мэйсянь


ПОГОДА в Мэйсяне

  • Прогноз погоды в Мэйсяне
  • Монитор погоды в Мэйсяне

АРХИВ ПОГОДЫ в Мэйсяне

Время (UTC), дата Ветер
(напр.,м/с)
 
Видим.   Явления Облачность Т
(С)
Тd
(С)
f
(%)
Тe
(С)
Тes
(С)
Комфортность P
(гПа)
Po
(гПа)
Тmin
(С)
Tmax
(С)
R
(мм)
R24
(мм)
S
(см)
03 10.09 СЗ 2 30 км 3/3 600 м
[]
+30.8 +22.9 63 +41 +53 опасность
перегрева
1010.7 1001.2
06 10.09 З 1 30 км 3/3 600 м
[]
+33.0 +21.1 50 +41 +54 опасность
перегрева
1008.7 995.4 +23.4
09 10.09 Ю 1 30 км 1/1 600 м
[]
+33.5 +21.3 49 +41 +44 опасность
перегрева
1007.2 997.8
12 10.09 Ю 1 30 км 8/8 1000 м
[]
+30.3 +22.2 62 +39 +39 очень
душно
1010.1 996.8
15 10.09 З 2 29 км н/о +27.2 +24.0 83 +38 +38 очень
душно
1011.9 1002.3
18 10.09 СЗ 2 29 км н/о +26.2 +23.6 86 +36 +36 очень
душно
1011.7 998.4 +34.9
21 10.09 З 1 16 км н/о +25.0 +23.7 93 +34 +34 очень
душно
1012.2 1002.5
00 11.09 С 1 25 км 5/5 600 м
[]
+27.4 +24.2 83 +38 +41 очень
душно
1013.6 1000.3
03 11.09 ЮЗ 1 30 км 3/3 600 м
[]
+32.0 +22.4 57 +41 +56 опасность
перегрева
1012.5 1003.0
06 11.09 СВ 1 30 км 4/4 600 м
[]
+34.6 +21.9 48 +43 +54 опасность
перегрева
1010.2 997.0 +25.0
09 11.09 С 1 30 км 3/3 600 м
[]
+34.6 +21.2 46 +42 +44 опасность
перегрева
1008.8 999.4
12 11.09 Ю 2 26 км 3/3
[]
+30.4 +23.0 65 +41 +41 опасность
перегрева
1010.5 997.2
15 11.09 ЮЗ 2 29 км н/о +29.1 +23.2 71 +39 +39 очень
душно
1011.8 1002.2
18 11.09 Ю 1 21 км в посл. час дождь ?/? +27.8 +24.0 80 +39 +39 очень
душно
1011.3 998.1 +35.7
21 11.09 З 2 13 км н/о +26.4 +24.6 90 +37 +37 очень
душно
1010.9 1001.3
00 12.09 С 1 14 км 5/5 600 м
[]
+27.4 +25.0 87 +39 +42 очень
душно
1012.2 998.9 0.1
03 12.09 З 1 30 км 3/3 600 м
[]
+32.0 +22.1 56 +41 +55 опасность
перегрева
1011.4 1001.9
06 12.09 СЗ 3 30 км 4/4 600 м
[]
+35.0 +21.6 46 +43 +51 опасность
перегрева
1008.3 995.2 +26.0
09 12.09 З 1 30 км 1/1 600 м
[]
+35.6 +22.5 47 +45 +47 опасность
перегрева
1007.0 997.7
12 12.09 Ю 1 27 км ясно +30.3 +24.2 70 +42 +42 опасность
перегрева
1008.1 994.9
15 12.09 З 1 30 км н/о +27.9 +24.5 82 +39 +39 очень
душно
1008.9 999.3
18 12.09 Ю 1 30 км н/о +27.3 +24.3 84 +38 +38 очень
душно
1008.3 995.2 +35.9
21 12.09 Ю 1 30 км н/о +26.8 +24.2 86 +37 +37 очень
душно
1008.4 998.8
00 13.09 В 1 19 км 3/3 600 м
[]
+28.5 +24.7 80 +41 +44 опасность
перегрева
1009.8 996.6
03 13.09 З 2 30 км 3/3 600 м
[]
+32.1 +23.3 60 +43 +55 опасность
перегрева
1009.2 999.8
06 13.09 З 1 30 км 3/3 600 м
[]
+34.6 +21.9 48 +43 +56 опасность
перегрева
1006.3 993.2 +26.2
09 13.09 СЗ 1 30 км 1/1 600 м
[]
+35.0 +20.9 44 +42 +44 опасность
перегрева
1005.6 996.3
12 13.09 З 1 30 км ясно +29.8 +23.4 69 +40 +40 очень
душно
1007.0 993.8
15 13.09 З 1 30 км н/о +28.2 +23.9 78 +39 +39 очень
душно
1008.6 999.0
18 13.09 ЮЗ 1 30 км н/о +27.4 +24.0 82 +38 +38 очень
душно
1008.2 995.1 +36.0
21 13.09 штиль 0 28 км н/о +26.5 +24.1 87 +37 +37 очень
душно
1008.3 998.7
00 14.09 Ю 1 30 км 8/8 600 м
[]
+28.1 +24.3 80 +39 +40 очень
душно
1009.6 996.3
03 14.09 СЗ 2 30 км 9/9 600 м
[]
+31.6 +24.2 65 +44 +45 опасность
перегрева
1009.2 999.7
06 14.09 З 2 30 км 5/5 600 м
[]
+35.1 +23.4 51 +46 +54 опасность
перегрева
1006.3 993.2 +26.2
09 14.09 Ю 1 30 км 5/5 600 м
[]
+34.7 +23.7 53 +46 +47 опасность
перегрева
1005.6 996.3
12 14.09 Ю 3 30 км в посл. час дождь 10/10 600 м
[]
+24.7 +22.7 89 +33 +33 очень
душно
1009.2 995.8 3
15 14.09 З 1 26 км н/о +24.7 +23.4 92 +33 +33 очень
душно
1010.3 1000.6
18 14.09 З 1 28 км ?/? +24.7 +23.4 92 +33 +33 очень
душно
1009.9 996.7 +35.4 0.1
21 14.09 З 2 8000 м н/о +23.6 +22.9 96 +31 +31 очень
душно
1009.5 999.8
00 15.09 штиль 0 13 км 9/9 600 м
[]
+24.9 +23.3 91 +33 +34 очень
душно
1011.2 997.7 0.1
03 15.09 В 2 25 км 3/3 600 м
[]
+29.8 +23.0 67 +40 +52 опасность
солнечного
удара
1010.2 1000.7
06 15.09 З 2 30 км 3/3 600 м
[]
+33.0 +22.4 54 +42 +53 опасность
перегрева
1006.7 993.5 +23.5
09 15.09 З 1 30 км 3/3 600 м
[]
+33.2 +21.6 51 +41 +43 опасность
перегрева
1005.4 996.0
12 15.09 З 1 19 км 8/8 600 м
[]
+28.9 +23.7 74 +40 +40 очень
душно
1007.1 993.8
15 15.09 СЗ 2 7000 м в посл. час дождь н/о +25.1 +24.4 96 +35 +35 очень
душно
1009.2 999.5
18 15.09 Ю 1 13 км ?/? +24.7 +24.0 96 +34 +34 очень
душно
1008.2 995.0 +34.2 17
21 15.09 Ю 1 8000 м н/о +24.7 +24.0 96 +34 +34 очень
душно
1008.3 998.6
00 16.09 штиль 0 10 км 9/9 600 м
[]
+25.6 +24.5 94 +36 +36 очень
душно
1010.1 996.8 17
03 16.09 З 1 28 км 3/3 600 м
[]
+30.3 +23.7 68 +41 +55 опасность
перегрева
1009.4 999.9
06 16.09 С 2 30 км 3/3 600 м
[]
+33.3 +22.1 52 +42 +53 опасность
перегрева
1006.3 993.1 +24.3
09 16.09 З 2 30 км 5/5 600 м
[]
+28.3 +21.3 66 +36 +37 очень
душно
1005.6 996.1
12 16.09 З 2 23 км 5/5 1000 м
[]
+26.4 +23.2 83 +36 +36 очень
душно
1006.8 993.5
15 16.09 З 2 19 км н/о +26.2 +23.8 87 +36 +36 очень
душно
1008.4 998.8
18 16.09 ЮЗ 1 12 км н/о +25.6 +24.1 91 +35 +35 очень
душно
1008.3 995.1 +34.1
21 16.09 З 1 7000 м дымка н/о +24.9 +24.0 95 +34 +34 очень
душно
1009.0 999.3
00 17.09 З 2 10 км 1/1 600 м
[]
+26.2 +24.4 90 +37 +40 очень
душно
1010.9 997.5

 

Местоположение метеостанции Мэйсянь (Гуандун, Китай): широта 24.30 долгота 116.11 высота над уровнем моря 84 м.

В архиве по умолчанию представлена погода в Мэйсяне за последнюю неделю. Архивные данные за месяц целиком и за предыдущие месяцы, начиная с января 2011 года, Вы можете получить, выбрав интересующий диапазон дат из раскрывающегося списка и нажав кнопку "Ввод!".


*Определитесь, кто Вы:
робот инопланетянин человек

Внимание! Время в таблицах - всемирное. Для получения местного времени необходимо прибавить поправку, которая равна 8 ч.

Смотрите также архив погоды в соседних городах и на ближайших метеорологических станциях:

Погода в Сюньву (Цзяньси, Китай) (86 км)
Погода в Шаньтоу (Гуандун, Китай) (116 км)
Погода в Хэюане (Гуандун, Китай) (151 км)
Погода в Лиянпине (Гуандун, Китай) (165 км)
Погода в Чжанпине (Фуцзянь, Китай) (171 км)
Погода в Чантине (Фуцзянь, Китай) (174 км)
Погода в Шаньвэе (Гуандун, Китай) (186 км)
Погода в Сямэне (Фуцзянь, Китай) (201 км)
Погода в Ганьчжоу (Цзяньси, Китай) (207 км)
Погода в Йонъяне (Фуцзянь, Китай) (224 км)

Пояснения к столбцам:

Ветер - указаны скорость ветра в м/с - средняя за 10 мин, порывы в срок и между сроками (в фигурных скобках) и направление, откуда дует ветер: С - северный, СВ - северо-восточный, В - восточный, ЮВ - юго-восточный, Ю - южный, ЮЗ - юго-западный, З - западный, СЗ - северо-западный.
Видимость - горизонтальная дальность видимости в метрах или километрах. При видимости от 1 до 10 км при отсутствии осадков обычно наблюдается дымка, при ухудшении видимости до 1 км и менее - туман. В сухую погоду видимость может ухудшаться дымом, пылью или мглою.
Явления - указаны атмосферные явления, наблюдавшиеся в срок или в последний час перед сроком; фигурными скобками обозначены явления, наблюдавшиеся между сроками (за 1-3 часа до срока); квадратными скобками обозначены град или гололедные отложения с указанием их диаметра в мм.
Облачность - указаны через наклонную черту общая и нижняя облачность в баллах и высота нижней границы облаков в метрах; квадратными скобками обозначены формы облаков: Ci - перистые, Cs - перисто-слоистые, Cc - перисто-кучевые, Ac - высококучевые, As - высокослоистые, Sc - слоисто-кучевые, Ns - слоисто-дождевые, Cu - кучевые, Cb - кучево-дождевые. Подробнее классификацию облаков см. в Атласе облаков (PDF).
T - Температура воздуха - температура, измеренная на высоте 2 м над землей.
Td - Температура точки росы - температура, при понижении до которой содержащийся в воздухе водяной пар достигнет насыщения.
f - Относительная влажность воздуха - влажноcть воздуха, измеренная на высоте 2 м над землей.
Te - Эффективная температура - температура, которую ощущает одетый по сезону человек в тени. Характеристика душности погоды. При расчете учитывается влияние влажности воздуха и скорости ветра на теплоощущения человека.
Tes - Эффективная температура на солнце - температура, которую ощущает человек, с поправкой на солнечный нагрев. Характеристика знойности погоды. Зависит от высоты солнца над горизонтом, облачности и скорости ветра. Ночью, в пасмурную погоду, а также при ветре 12 м/с и более поправка равна нулю.
P - Атмосферное давление - приведенное к уровню моря атмосферное давление.
Po - Атмосферное давление - измеренное на уровне метеостанции атмосферное давление.
Tmin - Минимальная температура - минимум температуры воздуха на высоте 2 м над землей.
Tmax - Максимальная температура - максимум температуры воздуха на высоте 2 м над землей.
R - Количество осадков - Количество выпавших осадков за период времени, мм. При наведении курсора мыши на число - период времени, за который выпало указанное количество осадков.
R24 - Количество осадков - Количество выпавших осадков за 24 часа, мм.
S - Снежный покров - Высота снежного покрова, см. При наведении курсора мыши на число - состояние снежного покрова и степень покрытия местности в баллах.